CZ-6A DEB, 61831

Orbit data source: Space-Track

CZ-6A DEB, 61831 is space debris in LEO originally from a launch on Tue, 06 Aug 2024 UTC launched from the Taiyaun Space Center, China (TSC). Debris objects in space refer to the collection of defunct objects orbiting the Earth. Examples of debris include non-operational satellites, rocket bodies, and fragments generated from explosions, collisions, or faulty payload assembly.

Loading next visibility...
Identifier
61831, 2024-140ACX
Orbit
LEO
Country
Flag of CNCN / PRC
Related business
Manufacturer
SAST
Mission
Spacecraft
Bus & Motor
Unknown
Mass
Unknown
Launch date (UTC)
2024-08-06 (2 years ago)
Launch vehicle
Unknown
Launch site
Taiyaun Space Center, China (TSC)
Object type
Payload
Rocket body
Debris
Shape & HBR
Unknown shape, 0.1 m
Radar Cross Section
Medium (>0.1 m² and <1 m²)

Expand to show TLE details & history
Last TLE update: 18 hours ago

TLE from 18 hours ago
0 CZ-6A DEB
1 61831U 24140ACX 26171.24319566  .00001377  00000-0  70881-3 0  9998
2 61831  88.9879 274.4303 0088180 213.4422 146.1178 14.12721977 90374
Epoch: 2026-06-20T05:50Z
TLE epoch observation values (Epoch: 2026-06-20T05:50:12.105Z)
Latitude
0.00003°
Longitude
-81.58075°
Altitude
906.213 km
Speed
7.372 km/s
True Right ascension
18h 17m 43s
True Declination
0° 00' 00"
Sunlit
Object was in full shadow at epoch
Visualization orbit readout
Latitude
Unknown
Longitude
Unknown
Altitude
Unknown
Speed
Unknown
Apparent Right ascension
Unknown
Apparent Declination
Unknown
Sunlit
N/A
Visualization observer readout
Local Sidereal Time
10:19:33
Azimuth
Unknown
Elevation
Unknown
Doppler factor
Unknown
Orbital elements
Apogee altitude
910.745 km
Perigee altitude
783.322 km
Semi-major axis
7,225.17 km
Eccentricity
0.00882
Inclination
88.9879°
RAAN
274.4303°
Arg. of periapsis
213.4422°
True anomaly
146.676°
Mean anomaly
146.1178°
Eccentric anomaly
146.39741°
Mean motion
3.53404 °/min
Orbital period
101.87 mins
BSTAR
0.00070881
Loading maneuver chart data...
Computing Atmospheric mass density...
Loading historical data...
Loading historical data...
Loading historical data...
Loading historical data...
Loading historical data...
Loading historical data...
Loading historical data...

Documentation

Showing up to 5 results
|